Simultaneous Nadir Overpasses (SNOs) Predictions

Prediction of SNOs between GOES-17 and NPP Satellite Orbit:

Table of predicted SNOs for the next 14.0 days since TLE Epoch: 12/14/2024
Index Date Time (GOES-17) GOES-17 Lat,Lon NPP Lat,Lon Distance(km) Time Diff (sec)
1 12/16/2024 08:26:53 0.02,-104.70 0.13,-105.13 48.50 80
2 12/17/2024 08:05:31 0.01,-104.70 -0.90,-100.61 466.69 80
3 12/18/2024 20:27:30 -0.00,-104.67 -0.30,-105.92 143.16 80
4 12/19/2024 20:11:28 0.01,-104.67 0.73,-101.40 372.91 80
5 12/21/2024 08:33:18 -0.01,-104.72 0.43,-106.68 223.06 80
6 12/22/2024 08:11:56 -0.01,-104.72 -0.61,-102.16 292.80 80
7 12/23/2024 20:33:54 0.01,-104.68 -0.63,-107.46 316.89 80
8 12/24/2024 20:17:51 0.01,-104.69 0.42,-102.94 199.62 80
9 12/26/2024 08:39:41 -0.01,-104.75 0.79,-108.21 395.15 80
10 12/27/2024 08:18:18 -0.01,-104.75 -0.25,-103.69 120.76 80
